Location: Melizzano
(41.1500°N, 14.5000°E)
Time: 07:24:58
(UTC+00:00)

Cosmos 773 Rocket - Pass Details

Date: 11 May 2021
Orbit: 745 x 777 km, 74.1° (Epoch: 15 June)

Event Time Altitude Azimuth Distance (km) Brightness Sun altitude
Rises 20:12:46 0° 337° (NNW) 3,266 8.6 -19.4°
Reaches altitude 10° 20:15:10 10° 335° (NNW) 2,334 7.6 -19.7°
Maximum altitude 20:20:26 68° 254° (WSW) 836 4.2 -20.4°
Enters shadow 20:22:41 34° 182° (S) 1,251 4.7 -20.6°
